Location: Observatory
(49.4490°N, 2.6360°W)
Time: 20:21:54
(UTC+00:00)

Tiangong - Visible Passes

Search period start: 28 February 2024 00:00
Search period end: 09 March 2024 00:00
Orbit: 375 x 385 km, 41.5° (Epoch: 28 February)

Date Brightness Start Highest point End Pass type
(mag) Time Alt. Az. Time Alt. Az. Time Alt. Az.
01 Mar 0.0 19:23:17 10° SSW 19:25:06 15° SSE 19:25:09 15° SSE visible
02 Mar 0.2 19:57:48 10° SW 19:59:00 16° SSW 19:59:00 16° SSW visible
03 Mar -0.1 18:56:47 10° SW 18:58:55 17° S 19:00:37 12° SE visible
04 Mar -0.3 19:31:29 10° SW 19:33:46 19° S 19:34:16 18° S visible
05 Mar -0.1 18:30:13 10° SW 18:32:29 19° S 18:34:45 10° SE visible
05 Mar 0.4 20:06:38 10° SW 20:07:50 14° SSW 20:07:50 14° SSW visible
06 Mar 0.0 19:05:01 10° SW 19:07:12 18° S 19:09:16 11° SE visible
07 Mar 0.4 19:40:26 10° SW 19:41:48 12° SSW 19:42:45 11° S visible
08 Mar 0.3 18:38:24 10° SW 18:40:23 16° SSW 18:42:20 10° SSE visible
